Informationen zur Loipe auf der Atzenberger Höhe
 
19.01.2019Höhe
ü. NN
ZeitTemperatur (°C)Nieder-
schlag
Luft-
feuchte
Luft-
druck
Wind
StationaktuellMinimumMaximumaktuellMaximum
Aldingen654 m22:26-6,1-10,0 (05:59)-2,0 (14:43)0,0 l/m²92%1016,35,6 km/h (2 Bft) SO14,8 km/h (3 Bft) S-SO (13:07)
Allmannsweiler625 m22:25-9,7-9,7 (22:20)-2,8 (15:25)0,0 l/m²93%1015,60,0 km/h (0 Bft) SO12,9 km/h (3 Bft) SW (13:50)
Allmendingen541 m22:25-9,0-10,2 (07:25)-3,4 (00:35)0,0 l/m²90%1015,90,0 km/h (0 Bft) S-SW16,1 km/h (3 Bft) SO (09:05)
Altshausen574 m22:25-8,4-8,4 (22:14)-2,3 (14:44)0,0 l/m²88%1011,60,0 km/h (0 Bft) W-SW11,3 km/h (2 Bft) N-NO (00:05)
Amstetten-Reutti663 m22:25-7,3-8,0 (06:10)-4,1 (14:40)0,0 l/m²94%1015,50,0 km/h (0 Bft) S-SO27,4 km/h (4 Bft) O (09:45)
Amtzell-Grenis677 m22:25-8,3-8,4 (22:15)-2,1 (14:15)0,0 l/m²88%1016,96,4 km/h (2 Bft) N-NO16,1 km/h (3 Bft) O-SO (00:00)
Aulendorf570 m22:25-8,2-8,2 (22:17)-2,5 (15:13)0,0 l/m²86%1015,00,0 km/h (0 Bft) S-SW14,5 km/h (3 Bft) NO (00:34)
Bad Krozingen233 m22:25-3,7-5,7 (08:50)0,4 (15:35)0,0 l/m²92%1015,30,0 km/h (0 Bft) O6,6 km/h (2 Bft) W-NW (13:25)
Bad Saulgau595 m22:25-7,9-7,9 (22:20)-1,9 (15:15)0,0 l/m²90%1014,41,6 km/h (1 Bft) W-NW12,9 km/h (3 Bft) W (07:00)
Bad Saulgau-Lampertsweiler627 m22:25-7,6-7,6 (22:25)-2,8 (00:00)0,0 l/m²88%1017,80,0 km/h (0 Bft) O-SO14,5 km/h (3 Bft) S-SO (10:50)
Bad Schussenried572 m22:25-6,9-7,1 (20:40)-2,6 (15:10)0,0 l/m²90%1013,80,0 km/h (0 Bft) SW11,3 km/h (2 Bft) O-NO (00:15)
Bergatreute615 m22:25-10,2-10,6 (22:10)-2,0 (14:20)0,0 l/m²94%1015,94,8 km/h (1 Bft) N12,9 km/h (3 Bft) O-NO (00:00)
Biberach (Riss), Boehringer533 m22:20-7,9-8,2 (22:00)-2,9 (00:00)0,0 l/m²94%1013,90,7 km/h (0 Bft) W-NW16,6 km/h (3 Bft) S (13:50)
Biberach (Riss), Realschule553 m22:25-9,2-9,2 (22:05)-3,2 (00:00)0,0 l/m²92%1016,80,0 km/h (0 Bft) O-SO16,1 km/h (3 Bft) W-SW (12:55)
Bodnegg-Rotheidlen677 m22:25-8,0-8,1 (06:20)-2,7 (14:25)0,0 l/m²93%1015,70,0 km/h (0 Bft) W-NW14,5 km/h (3 Bft) O (00:00)
Burgrieden523 m22:25-7,4-7,4 (22:25)-3,2 (00:00)0,0 l/m²87%1015,60,0 km/h (0 Bft) S12,9 km/h (3 Bft) S (17:35)
Burgrieden-Hochstetten510 m22:25-7,8-7,8 (22:20)-2,8 (23:00)0,0 l/m²91%1015,73,2 km/h (1 Bft) SO14,5 km/h (3 Bft) SO (08:15)
Donauwörth411 m22:25-6,6-6,6 (22:25)-0,8 (15:05)0,0 l/m²91%1015,90,0 km/h (0 Bft) O-SO22,5 km/h (4 Bft) O (10:45)
Ebersbach579 m22:25-8,7-8,8 (22:25)-2,6 (00:00)0,0 l/m²93%1016,40,0 km/h (0 Bft) O17,7 km/h (3 Bft) O-NO (00:00)
Ebersbach-Boos605 m22:25-9,1-9,1 (22:25)-2,5 (15:15)0,0 l/m²93%1016,30,0 km/h (0 Bft) O-SO22,5 km/h (4 Bft) O (00:05)
Ebersbach-Menzenweiler661 m22:25-6,9-6,9 (21:55)-3,1 (15:05)0,0 l/m²95%1016,16,4 km/h (2 Bft) O-NO29,0 km/h (5 Bft) O-NO (00:00)
Ehingen535 m22:25-8,5-8,5 (22:25)-3,7 (00:50)0,0 l/m²87%1015,80,0 km/h (0 Bft) W-SW12,8 km/h (3 Bft) W-SW (08:50)
Erlenmoos645 m22:25-9,2-9,2 (22:20)-2,6 (15:15)0,0 l/m²85%1015,80,0 km/h (0 Bft) O-NO0,0 km/h (0 Bft) W (00:00)
Ertingen569 m22:30-7,4-7,4 (22:25)-2,8 (15:20)0,0 l/m²90%1015,30,0 km/h (0 Bft) O-SO12,9 km/h (3 Bft) N-NO (07:10)
Friedrichshafen405 m22:25-5,2-5,2 (22:25)2,1 (15:25)0,0 l/m²88%1015,88,0 km/h (2 Bft) N-NO12,9 km/h (3 Bft) O (23:10)
Günzburg443 m22:25-7,0-7,1 (21:20)-2,2 (15:09)0,0 l/m²89%1013,20,0 km/h (0 Bft) W14,5 km/h (3 Bft) O-SO (09:25)
Höchsten802 m22:25-6,0-7,7 (08:35)-4,1 (14:50)0,0 l/m²93%1013,50,0 km/h (0 Bft) SO38,6 km/h (5 Bft) N-NO (00:35)
Horgenzell618 m22:25-5,1-5,2 (03:50)-3,7 (00:00)0,0 l/m²90%1013,48,0 km/h (2 Bft) O-NO19,3 km/h (3 Bft) NO (00:25)
Hoßkirch632 m22:25-8,8-8,8 (22:20)-2,7 (14:25)0,0 l/m²92%1014,70,0 km/h (0 Bft) SW20,9 km/h (4 Bft) O-NO (00:35)
Isny, Am Dreifingerbach695 m22:25-9,9-11,4 (06:00)-2,3 (15:05)0,0 l/m²90%1015,88,0 km/h (2 Bft) O8,0 km/h (2 Bft) O (22:25)
Isny, Weidachweg706 m22:25-11,0-11,7 (08:20)-1,3 (14:10)0,0 l/m²89%1017,33,2 km/h (1 Bft) O11,3 km/h (2 Bft) SW (02:20)
Kappel-Grafenhausen163 m22:20-3,4-4,9 (08:20)2,4 (14:45)0,0 l/m²90%1013,10,0 km/h (0 Bft) N6,4 km/h (2 Bft) N-NO (10:25)
Kirchberg an der Iller584 m22:25-8,2-8,3 (22:15)-3,2 (23:00)0,0 l/m²88%1005,40,0 km/h (0 Bft) SO8,0 km/h (2 Bft) S-SW (01:55)
Kißlegg-Staibshof709 m22:25-7,1-7,2 (08:10)-1,4 (15:20)0,0 l/m²96%1015,50,0 km/h (0 Bft) N-NO11,3 km/h (2 Bft) O-NO (00:00)
Kressbronn398 m22:28-4,9-5,1 (07:56)-0,4 (14:52)0,0 l/m²84%1014,50,0 km/h (0 Bft) NO12,9 km/h (3 Bft) NO (01:08)
Kreuzthal-Steinberg-Alpe930 m22:10-6,1-10,0 (08:00)2,6 (12:50)0,0 l/m²100%1015,00,4 km/h (0 Bft) O13,7 km/h (3 Bft) W-NW (00:00)
Kreuzthal-Steinberggipfel1040 m22:20-3,6-8,9 (07:50)0,1 (14:10)-84%1015,011,9 km/h (3 Bft) SW22,7 km/h (4 Bft) O-SO (00:40)
Kristberg im Montafon (AT)1425 m22:25-8,2-9,5 (05:20)3,1 (12:15)0,0 l/m²70%1015,33,2 km/h (1 Bft) N12,9 km/h (3 Bft) N (09:00)
Laupheim500 m22:25-7,4-7,4 (22:20)-3,2 (00:00)0,0 l/m²90%1015,14,8 km/h (1 Bft) SW14,5 km/h (3 Bft) S-SW (12:20)
Lindau-Insel420 m22:25-4,9-6,2 (08:30)1,4 (14:45)0,0 l/m²85%1014,93,2 km/h (1 Bft) N11,3 km/h (2 Bft) W (13:55)
Lindau-Stadt412 m22:25-5,5-6,8 (07:45)-0,4 (11:50)0,0 l/m²86%1015,24,8 km/h (1 Bft) NO9,7 km/h (2 Bft) N (01:10)
Maierhöfen im Allgäu733 m22:30-14,3-15,2 (08:10)1,6 (13:30)0,0 l/m²88%1017,00,0 km/h (0 Bft) SW4,8 km/h (1 Bft) O (01:45)
Maselheim-Sulmingen548 m22:25-8,9-8,9 (22:25)-3,7 (23:00)0,0 l/m²92%1017,23,2 km/h (1 Bft) O-SO12,9 km/h (3 Bft) O (23:05)
Mietingen-Baltringen528 m22:25-8,3-8,3 (22:25)-3,3 (00:00)0,0 l/m²88%1017,63,2 km/h (1 Bft) W12,9 km/h (3 Bft) SO (08:20)
Mindelheim-Apfeltrach620 m22:26-13,3-13,3 (22:19)-2,3 (14:59)0,2 l/m²88%1017,00,0 km/h (0 Bft) S6,4 km/h (2 Bft) NO (06:59)
Neresheim552 m22:00-6,1-6,1 (22:00)-3,8 (15:33)0,0 l/m²92%1012,20,0 km/h (0 Bft) S15,1 km/h (3 Bft) O-SO (09:22)
Neukirch570 m22:25-7,3-7,4 (07:10)-0,8 (13:00)0,0 l/m²92%1015,96,4 km/h (2 Bft) NO9,7 km/h (2 Bft) NO (23:30)
Ochsenhausen, Birkenstraße613 m22:25-10,7-10,7 (22:05)-3,5 (14:15)0,0 l/m²84%1016,43,2 km/h (1 Bft) O11,3 km/h (2 Bft) O-NO (08:05)
Ochsenhausen, Unt. Wiesen575 m22:25-10,6-10,6 (22:00)-3,7 (00:00)0,0 l/m²91%1017,39,7 km/h (2 Bft) S14,5 km/h (3 Bft) S-SO (08:05)
Ostrach619 m22:25-8,8-8,8 (22:15)-1,3 (14:40)0,0 l/m²92%1014,10,0 km/h (0 Bft) S-SO17,7 km/h (3 Bft) N-NO (23:00)
Ravensburg428 m22:25-6,1-6,1 (22:25)-0,4 (15:10)0,0 l/m²90%1015,08,0 km/h (2 Bft) N16,1 km/h (3 Bft) N-NO (01:45)
Ravensburg-Wernsreute511 m22:25-7,0-7,1 (22:25)-1,7 (15:25)0,0 l/m²91%1017,88,0 km/h (2 Bft) N22,5 km/h (4 Bft) N-NO (23:30)
Reichenbach an der Fils343 m22:25-5,9-5,9 (22:25)-1,8 (11:20)0,0 l/m²84%1017,314,5 km/h (3 Bft) SO24,1 km/h (4 Bft) O (20:10)
Reinstetten559 m22:25-10,8-10,8 (22:15)-3,2 (00:00)0,0 l/m²91%1016,34,8 km/h (1 Bft) S-SW17,7 km/h (3 Bft) SO (09:35)
Riedlingen530 m22:25-7,7-7,7 (22:20)-3,2 (15:25)0,0 l/m²91%1015,60,0 km/h (0 Bft) O-NO12,9 km/h (3 Bft) O-NO (00:45)
Schemmerhofen520 m22:25-8,7-8,7 (22:20)-3,0 (00:00)0,0 l/m²91%1015,40,0 km/h (0 Bft) SW12,9 km/h (3 Bft) N-NO (04:00)
Silbertal im Montafon (AT)884 m22:25-7,8-9,2 (06:40)-4,6 (14:50)0,0 l/m²90%1017,60,0 km/h (0 Bft) SO3,2 km/h (1 Bft) S-SO (02:00)
Tettnang466 m22:25-5,3-5,9 (07:35)-0,5 (14:55)0,0 l/m²86%1014,09,7 km/h (2 Bft) NO14,5 km/h (3 Bft) O (01:05)
Tuttlingen662 m22:25-7,1-9,6 (05:10)-3,9 (14:35)0,0 l/m²89%1015,61,6 km/h (1 Bft) O-SO11,3 km/h (2 Bft) O-SO (14:40)
Ummendorf547 m22:25-9,9-9,9 (22:00)-3,4 (01:30)0,0 l/m²89%1016,84,8 km/h (1 Bft) S-SO16,1 km/h (3 Bft) SW (13:05)
Ummendorf-Fischbach558 m22:25-10,9-10,9 (22:25)-3,9 (01:25)0,0 l/m²89%1017,30,0 km/h (0 Bft) S-SO14,5 km/h (3 Bft) O-NO (01:35)
Waldburg707 m22:25-7,8-7,8 (22:25)-3,2 (13:05)0,0 l/m²92%1015,30,0 km/h (0 Bft) N14,5 km/h (3 Bft) N (00:15)
Waltenhofen im Allgäu720 m22:25-13,2-13,7 (07:35)-0,8 (13:35)0,2 l/m²89%1016,40,0 km/h (0 Bft) S-SW4,8 km/h (1 Bft) S-SW (11:55)
Weingarten500 m22:25-8,0-8,0 (22:25)-1,5 (14:25)0,0 l/m²89%1015,50,0 km/h (0 Bft) O-NO8,0 km/h (2 Bft) O-NO (00:55)
Winterlingen785 m22:00-6,8-10,0 (07:00)-3,9 (16:00)0,0 l/m²96%1013,65,8 km/h (2 Bft) S7,2 km/h (2 Bft) S-SO (10:40)

niederschlagsdatenbank | info | login - erfassung

Sollten Sie Interesse haben, an der Niederschlagsdatenbank teilzunehmen, finden Sie > hier < weitere Informationen.
Datum: . . Kalender
Anmerkung:0,0 = nicht messbarer Niederschlag
 -  = kein Niederschlag
 k  = kumulierter Niederschlag

< 11.01.201913.01.2019 >


Niederschlagswerte vom 12.01.2019    -    derzeit 103 Stationen

Die Niederschlagswerte des gewählten Tages lassen sich durch Klicken auf das Datum sortieren.
Die Angaben sind in l/m².

Station09.01.10.01.11.01.12.01.13.01.14.01.15.01.Bemerkung 12.01.
Aichstetten-Nestbaum-------
Albbruck 2,80,5-22,538,54,8-
Schneeregen am Vormittag. Bis am Nachmittag ist der Schnee weg getaut [weiterlesen...]
Regen Schneeregen Schnee
Schneehöhe: 2,0
Allmendingen5,5-4,312,523,53,5-
Regen Schneeregen
Amstetten-Reutti7,60,66,010,831,02,0-
Schneeregen Schnee
Schneehöhe: 31 cm
Aulendorf8,56,07,58,012,03,2-
Regen Schneeregen Schnee
Schneehöhe: 26 cm
Aulendorf-Blönried10,02,85,06,012,02,5-
Schneehöhe: 25 cm
Aulendorf-Zollenreute--4,52,012,5--
Schneeregen Schnee
Schneehöhe: 28cm
Bad Buchau7,05,56,09,012,02,0-
Bad Saulgau Walserweg6,02,04,56,011,52,0-
Regen Schneeregen
Schneehöhe: 25 cm
Bad Saulgau-Hochberg-------
Bad Schussenried Konradstraße10,13,24,37,712,41,8-
Nieselregen Schneeregen Schnee Schneegriesel
Schneehöhe: 29 cm
Bad Schussenried Lortzingstrasse8,05,03,58,013,53,0-
Schnee
Bad Schussenried Klosterstraße7,03,05,010,513,02,0-
Regen Schneeregen Schnee
Bad Schussenried Theodor-Storm-Strasse10,04,44,510,012,82,2-
Schnee
Bad Schussenried-Hopferbach7,53,07,09,013,52,0-
Schneeregen Schnee
Bad Schussenried-Schwaigfurt8,52,56,011,014,51,2-
Bad Waldsee-Haisterkirch15,65,110,99,017,31,0-
-2/+1°C, vor allem in der ersten Nachthälfte ausgiebig schwerer Neus [weiterlesen...]
Nieselregen Schneeregen Schnee
Schneehöhe: 35 cm
Bad Wurzach-Dietmanns-------
Bad Wurzach-Seibranz11,57,76,55,517,02,0-
Schneehöhe: 57 cm
Baienfurt16,016,016,012,016,02,0-
Regen Schneeregen Schnee
Schneehöhe: 21 cm
Balzheim7,05,02,010,016,01,5-
Schneeregen
Schneehöhe: 20 cm
Berg-Kleintobel8,511,04,98,214,82,1-
Regen Schneeregen Schnee
Schneehöhe: 26 cm
Biberach Amriswilstrasse8,05,04,07,514,71,5-
Schneeregen Schnee
Schneehöhe: 24 cm
Biberach Strölinweg7,5---32,01,5-
Biberach Erlenweg-------
Biberach Neue Heimat 5-------
Biberach Mittelbergstraße 98,04,04,010,014,52,0-
Regen Schneeregen Schnee
Schneehöhe: 20 - 21 cm
Biberach-Bergerhausen7,02,04,09,015,51,5-
Schneeregen Schnee
Bierstetten10,03,54,36,4---
Schnee
Blaubeuren-Pappelau--21,019,0 k30,0-3,0
Naßschnee
Schneehöhe: 19 cm
Bühlertal2,03,03,014,07,0--
Regen
Schneehöhe: 3 cm
Dettingen a. d. Iller-------
Dornstadt-Tomerdingen8,60,74,612,522,51,6-
Schneehöhe: 17 cm
Dürnau9,03,54,55,510,02,0-
Regen Schneeregen Schnee
Eberhardzell Lilienweg11,46,96,29,714,01,20,1
Regen
Schneehöhe: 33 cm
Ebersbach-Roßwälden7,20,72,19,224,00,70,0
Schneehöhe: 8 cm
Ehingen Rosenstraße4,00,33,015,422,03,00,0
Regen Schneeregen Schnee
Schneehöhe: 7 cm
Ehingen Zanderstraße5,42,5-----
Ehingen Schlaufenbühl8,5-3,610,330,72,7-
Schneeregen Schnee
Schneehöhe: 11 cm
Ehingen Schillerstraße3,0-3,013,019,92,0-
Regen Schnee
Schneehöhe: 5 cm gesamt
Ehingen-Herbertshofen-------
Eislingen7,52,13,913,433,61,30,0
Regen Schneeregen Schnee
Schneehöhe: 10 cm
Erbach-Bach2,51,02,511,016,02,7-
Erlenmoos10,96,95,212,918,23,1-
Regen Schnee
Schneehöhe: 37 cm
Füramoos-0,00,00,011,75,50,7
Schneehöhe: 60 cm
Schnee
Gutenzell--6,012,014,02,0-
Schneematsch
Schneehöhe: 25,0cm
Gutenzell-Hürbel6,53,03,510,014,0--
Schnee
Herbertingen Drosselweg8,53,52,57,511,52,5-
Tagsüber trocken mit Aufhellungen und auch sonnige Abschnitte in der [weiterlesen...]
Regen Schneeregen Schnee
Schneehöhe: 18cm
Herbertingen Hirschstrasse6,03,02,06,010,01,0-
Regen Schneeregen Schnee
Schneehöhe: 16 cm
Hochdorf-Schweinhausen21,5-12,98,616,72,3-
Schneeregen
Schneehöhe: 30 cm
Hohentengen-Bremen5,03,02,06,013,02,0-
Schneeregen
Schneehöhe: 12 cm
Horgenzell-Ringgenweiler4,34,24,59,717,82,9-
Schneeregen Schnee
Schneehöhe: 23 cm
Hüttisheim7,03,03,013,015,02,0-
nass
Regen Schneeregen Schnee
Schneehöhe: 8 cm
Illerkirchberg4,01,84,714,919,31,1-
Das Meiste kam als Schneematsch runter
Regen Schneeregen Schnee
Schneehöhe: 8 cm
Inzigkofen3,20,02,05,812,23,0-
Schneeregen Schnee
Schneehöhe: 10 cm
Isny12,05,02,411,433,43,2-
schwerer Schnee
Schnee
Schneehöhe: 75 cm
Kirchberg8,06,04,48,014,02,2-
3 cm Neuschnee
Regen Schnee
Schneehöhe: 28 cm
Kreuzthal-Steinberg-Alpe22,08,312,123,144,02,10,0
Schnee
Schneehöhe: 112 cm
Langenau4,02,03,010,520,04,51,0
Schneehöhe: 6cm
Langenenslingen4,60,61,88,412,62,20,0
Regen Schneeregen Schnee
Schneehöhe: 9 cm
Leutkirch Unterer Auenweg 2511,59,05,213,822,01,50,1
Schnee
Leutkirch Nachtigallenweg 2810,011,06,015,025,02,0-
Schnee
Schneehöhe: 55cm
Leutkirch-Adrazhofen12,07,05,031,028,03,0-
Schneehöhe: 65 cm
Mietingen Seerosenweg 10-------
Mietingen-Walpertshofen-------
Mittelbiberach-Reute6,65,44,58,814,41,8-
Schneeregen Schnee
Schneehöhe: 20 cm
Moosburg15,05,61,75,014,51,5-
Zum Abend hin einsetzender Schneefall der mehr und mehr in Regen, Schn [weiterlesen...]
Regen Schneeregen Schnee
Schneehöhe: 23 cm
Münsingen-Rietheim18,22,85,211,826,86,0-
Schneeregen Schnee
Schneehöhe: 46 cm
Neresheim6,51,54,75,414,66,1-
Schneeregen Schnee
Schneehöhe: 19 cm
Oberdischingen-------
Ochsenhausen10,45,11,22,311,92,8-
Schnee
Schneehöhe: 27 cm
Öpfingen2,51,13,28,819,02,0-
Schneeregen Schnee
Schneehöhe: 8cm
Ostrach Uhlandweg--14,06,010,52,5-
Nieselregen Schnee
Schneehöhe: 14 cm
Pfaffenhofen-Kadeltshofen7,05,04,09,011,02,0-
Schneehöhe: 8 cm
Pfullendorf Am Schweizersbild -----1,0-
Rangendingen-3,0-6,0 k-6,0-
Regen Schneeregen Schnee
Ravensburg Bleicherstraße8,05,97,110,912,02,6-
Ravensburg-Schmalegg4,56,55,010,019,51,50,0
Regen
Schneehöhe: 22 cm
Ravensburg-Wernsreute1,81,62,27,823,02,0-
Regen Schneeregen
Schneehöhe: 4,0
Ravensburg-Weststadt1,55,58,010,521,02,0-
Regen
Schneehöhe: 21 cm
Riedhausen3,63,42,84,811,42,6-
Temp.-1,3°C / +1,1°C, Windböen N 38.6 km/h
Schneeregen Schnee
Schneehöhe: 25 cm
Riedlingen-Neufra-------
Schelklingen-Gundershofen12,0-7,022,025,05,0-
Temp. zw. -2,7°C und +2,6°C. Trüb und In Tauwetter übergehend. Abe [weiterlesen...]
Schneehöhe: 32 cm
Schemmerberg12,05,03,510,524,02,0-
Schwörstadt-0,21,012,236,23,2-
Regen Schneeregen Schnee
Sigmaringendorf2,1-2,45,112,22,7-
Regen Schneeregen Schnee
Tuttlingen-Möhringen Eßlinger Straße5,00,00,43,217,6--
In der Tuttlinger Innenstadt liegen derzeit 16cm Schnee. In den Tu [weiterlesen...]
Regen Schneeregen Schnee
Schneehöhe: 16 - 23 cm
Ulm    neu  -----30,01,8
Ummendorf Tulpenweg11,03,07,811,519,02,00,0
Neuschnee und Setzung hielten sich die Waage
Schnee
Schneehöhe: 12 cm
Ummendorf Friedrich-Schiller-Str.-------
Uttenweiler-Ahlen12,22,83,88,212,02,0-
Schneeregen Schnee
Vöhringen (Schwarzwald)3,0-3,011,016,0-3,0
Schneehöhe: 7,0
Waldburg13,57,58,510,519,54,5-
Schneehöhe: 59 cm
Wangen-Atzenberg-------
Schneehöhe: Schneedecke (Tag 10)
Wangen-Bergerhöhe11,58,47,817,031,93,8-
Schneeregen Schnee
Schneehöhe: 63 cm
Warthausen An der Schloßhalde -------
Warthausen Schwabenwiesen -------
Warthausen-Barabein--5,011,014,02,0-
Regen
Weingarten Laurastraße8,511,08,59,015,02,0-
+ 1,0 ° C um 4.30 Uhr
Nieselregen Schneeregen Schnee
Schneehöhe: 22 cm
Weingarten Hoyerstraße-------
Weingarten Marienstraße10,05,08,09,515,01,5-
Regen Schneeregen
Schneehöhe: 15 cm
Wolfegg-Veesers-------
Wolpertswende0,00,00,00,04,90,01,8
Schneeregen Schnee
Schneehöhe: 28 cm

Stillgelegte Niederschlagsstationen    -    derzeit 46 Stationen

StationLetzte Meldung09.01.10.01.11.01.12.01.13.01.14.01.15.01.Bemerkung 12.01.
Allmannsweiler02.09.2014-------
Aulendorf-Rugetsweiler 25.07.2013-------
Bad Saulgau Willi-Burth-Straße19.09.2011-------
Bad Saulgau Eichendorffweg28.03.2013-------
Bad Saulgau Seewattenstraße 12815.01.2014-------
Bad Saulgau-Lampertsweiler18.02.2015-------
Bad Schussenried-Steinhausen26.09.2012-------
Bad Waldsee-Michelwinnanden31.12.2014-------
Bad Waldsee-Osterhofen06.03.2015-------
Bad Waldsee-Steinach10.11.2013-------
Bad Wurzach-Haidgau07.10.2012-------
Bad Wurzach-Ziegelbach07.11.2014-------
Bergatreute13.02.2012-------
Betzenweiler05.01.2017-------
Burgrieden28.10.2013-------
Burgrieden-Rot18.09.2013-------
Eberhardzell Schillerstraße05.07.2010-------
Ehingen Am Elzengraben17.06.2016-------
Gammertingen16.01.2016-------
Griesingen06.10.2015-------
Günzburg31.12.2010-------
Hoßkirch05.01.2018-------
Ingoldingen-Grodt19.11.2016-------
Kisslegg02.05.2011-------
Krauchenwies-Hausen23.11.2013-------
Kressbronn10.03.2010-------
Leutkirch-Ottmannshofen27.07.2012-------
Leutkirch-Rotis08.05.2016-------
Leutkirch-Wuchzenhofen19.09.2016-------
Mietingen Hangweg 1530.12.2017-------
Mössingen-Bästenhardt21.07.2014-------
Ostrach Heiligenberger Straße19.08.2013-------
Pfullendorf Ringstraße 18.03.2012-------
Ravensburg Olgastraße30.10.2016-------
Seltmans09.04.2013-------
Stuttgart-Bad Cannstatt03.02.2013-------
Stuttgart-Möhringen23.04.2017-------
Stuttgart-Rohr07.11.2012-------
Talheim21.08.2016-------
Tannheim22.10.2017-------
Tettnang-Ramsbach26.03.2011-------
Tuttlingen-Möhringen Belchenstraße01.01.2015-------
Ummendorf Bergstraße23.10.2017-------
Vogt22.05.2015-------
Weingarten Bischof-Sproll-Straße30.06.2011-------
Wilhelmsdorf Riedhauser Straße 28.10.2012-------
Wilhelmsdorf Seefeld20.08.2013-------
Wurmlingen14.10.2016-------
Die Niederschlagswerte des gewählten Tages lassen sich durch Klicken auf das Datum sortieren.
Die Angaben sind in l/m².

Wetterbeobachtungen Legende:

  • Regen
  • Nieselregen
  • Schneeregen
  • Schnee
  • Graupel
  • Eiskörner
  • Hagel
  • Bodennebel
  • Gewitter
  • Nebelnässe
  • Schneegriesel

Grafische Darstellung der Tagesniederschläge vom 12.01.2019

< 11.01.201913.01.2019 >Monats- und Jahresniederschlag


 
wetterstationen
wetterstationen
- derzeit 73 Stationen
niederschlagsdatenbank
wetterstationen
- kartographische Darstellung
niederschlagsdatenbank
niederschlagsstationen
- derzeit 103 Stationen
niederschlagsdatenbank
niederschlagsstationen
- kartographische Darstellung
 
 
Fr. 7.30 Uhr - Sa. 7.30 Uhr (MEZ)
1.Waldburg2,0 l/m²
2.Ulm1,5 l/m²
3.Amstetten-Reutti0,8 l/m²
4.Langenau0,5 l/m²
5.Dornstadt-Tomerdingen0,5 l/m²
6.Eberhardzell
Lilienweg
0,1 l/m²
7.Eislingen0,1 l/m²
8.Langenenslingen0,1 l/m²
9.Kreuzthal-Steinberg-Alpe0,0 l/m²
10.Ehingen
Rosenstraße
0,0 l/m²
11.Füramoos0,0 l/m²
12.Ehingen
Schillerstraße
0,0 l/m²
13.Ravensburg-Schmalegg0,0 l/m²
 
Sa. 19.01.2019 - 7.30 Uhr (MEZ)
1.Kreuzthal-Steinberg-Alpe108 cm
2.Isny54 cm
3.Leutkirch-Adrazhofen45 cm
4.Waldburg40 cm
5.Bad Wurzach-Seibranz39 cm
6.Münsingen-Rietheim34 cm
7.Schelklingen-Gundershofen24 cm
8.Eberhardzell
Lilienweg
19 cm
9.Bad Waldsee-Haisterkirch19 cm
10.Amstetten-Reutti18 cm
11.Ochsenhausen15 cm
12.Horgenzell-Ringgenweiler9 cm
13.Tuttlingen-Möhringen
Eßlinger Straße
8 cm
14.Ravensburg-Schmalegg7 cm
15.Langenenslingen2 cm
16.Ehingen
Schillerstraße
1 cm
17.Ulmalles wieder weg
18.WolpertswendeReste
19.Langenauca 1cm
20.Moosburgstark angezuckert
21.AulendorfReste
22.Öpfingen"Reste"
23.Weingarten
Marienstraße
Reste
24.BalzheimReste
25.Riedhausenr
26.Pfaffenhofen-KadeltshofenReste
27.Bad Saulgau
Walserweg
Reste
28.Weingarten
Laurastraße
Reste
 
  treffpunkt & service
--- Anzeigen --------------------------------
zugriffe:
insgesamt: 40.646.496
aktueller monat: 319.577
heute: 12.489
momentan online: 61
 
 
monatshöchstwert: 653.625
vorheriger monat: 400.931
gestern: 9.684
tageshöchstwert: 45.129
 
wetterwarte süd
 
konradstraße 3
info@wetterwarte-sued.com
roland roth
 
88427 bad schussenried